CW2927 Weather Reports


time (UTC)temp
C
wind
direction
speed
KPH
gust
KPH
rain 1hr
cm
rain 24hr
cm
rain mn
cm
humidity
%
barometer
mb
20260902002705 18 23 4.8 9.7 0.00 0.00 0.00 72 1016.1
20260902002205 19 33 6.4 11.3 0.00 0.00 0.00 72 1016.2
20260902000205 20 61 3.2 12.9 0.00 0.00 0.00 70 1016.0
20260901232704 21 57 8.0 19.3 0.00 0.00 0.00 64 1016.3
20260901232205 21 46 6.4 12.9 0.00 0.00 0.00 62 1016.3
20260901230705 22 30 3.2 4.8 0.00 0.00 0.00 50 1016.2
20260901230204 22 38 3.2 4.8 0.00 0.00 0.00 48 1016.2
20260901224705 23 81 1.6 4.8 0.00 0.00 0.00 47 1016.3
20260901224205 23 81 1.6 11.3 0.00 0.00 0.00 46 1016.3
20260901222705 23 69 3.2 4.8 0.00 0.00 0.00 46 1016.2
20260901222205 23 77 3.2 11.3 0.00 0.00 0.00 45 1016.2
20260901220205 23 67 8.0 14.5 0.00 0.00 0.00 44 1016.2
20260901214705 24 43 4.8 11.3 0.00 0.00 0.00 42 1016.1
20260901214205 24 82 6.4 16.1 0.00 0.00 0.00 43 1016.1
20260901212704 24 84 4.8 8.0 0.00 0.00 0.00 43 1016.1
20260901212204 24 50 3.2 12.9 0.00 0.00 0.00 43 1016.0
20260901210704 25 71 3.2 11.3 0.00 0.00 0.00 44 1016.2
20260901204705 24 53 8.0 14.5 0.00 0.00 0.00 42 1016.1
20260901202704 24 80 4.8 8.0 0.00 0.00 0.00 43 1015.8
20260901202204 24 132 6.4 14.5 0.00 0.00 0.00 43 1015.8
20260901200705 24 57 4.8 8.0 0.00 0.00 0.00 43 1015.9
20260901200205 24 84 4.8 11.3 0.00 0.00 0.00 43 1015.9
20260901194705 24 53 3.2 14.5 0.00 0.00 0.00 45 1016.0
20260901194205 24 54 4.8 12.9 0.00 0.00 0.00 45 1016.0
20260901192705 24 95 4.8 11.3 0.00 0.00 0.00 44 1016.1
20260901192205 24 81 4.8 14.5 0.00 0.00 0.00 47 1016.1
20260901190705 23 147 3.2 12.9 0.00 0.00 0.00 47 1016.2
20260901184705 23 5 3.2 8.0 0.00 0.00 0.00 54 1016.6
20260901184205 23 40 4.8 16.1 0.00 0.00 0.00 53 1016.6
20260901182704 23 36 4.8 11.3 0.00 0.00 0.00 52 1016.5
20260901182204 23 52 4.8 16.1 0.00 0.00 0.00 53 1016.5
20260901180704 23 74 6.4 12.9 0.00 0.00 0.00 55 1016.3
20260901174705 22 89 8.0 16.1 0.00 0.00 0.00 55 1016.7
20260901174204 22 65 4.8 16.1 0.00 0.00 0.00 57 1016.7
20260901172704 22 56 6.4 14.5 0.00 0.00 0.00 58 1016.7
20260901172204 22 94 3.2 12.9 0.00 0.00 0.00 57 1016.8
20260901170705 22 116 4.8 11.3 0.00 0.00 0.00 55 1016.9
20260901170204 22 76 8.0 12.9 0.00 0.00 0.00 53 1017.0
20260901164205 22 109 6.4 14.5 0.00 0.00 0.00 54 1017.1
20260901162704 22 38 8.0 19.3 0.00 0.00 0.00 54 1017.2
20260901162205 21 59 4.8 19.3 0.00 0.00 0.00 55 1017.2
20260901160704 21 20 6.4 12.9 0.00 0.00 0.00 58 1017.2
20260901160204 21 57 8.0 12.9 0.00 0.00 0.00 57 1017.4
20260901154704 22 125 3.2 11.3 0.00 0.00 0.00 61 1017.4
20260901154204 22 65 4.8 12.9 0.00 0.00 0.00 58 1017.5
20260901152704 21 80 4.8 11.3 0.00 0.00 0.00 63 1017.5
20260901152205 21 53 3.2 11.3 0.00 0.00 0.00 63 1017.6
20260901150704 20 46 4.8 12.9 0.00 0.00 0.00 63 1017.7
20260901150204 20 75 4.8 14.5 0.00 0.00 0.00 66 1017.6
20260901144704 20 75 4.8 11.3 0.00 0.00 0.00 67 1017.5
20260901144204 20 45 4.8 11.3 0.00 0.00 0.00 68 1017.5
20260901142704 19 80 8.0 12.9 0.00 0.00 0.00 69 1017.6
20260901142204 19 86 4.8 14.5 0.00 0.00 0.00 69 1017.6
20260901140704 18 77 4.8 11.3 0.00 0.00 0.00 70 1017.6
20260901140204 18 75 6.4 12.9 0.00 0.00 0.00 70 1017.5
20260901134704 18 41 4.8 9.7 0.00 0.00 0.00 73 1017.6
20260901134204 17 77 6.4 14.5 0.00 0.00 0.00 73 1017.7
20260901132705 17 58 6.4 12.9 0.00 0.00 0.00 76 1017.8
20260901132204 16 53 3.2 9.7 0.00 0.00 0.00 78 1017.9
20260901130704 15 65 4.8 9.7 0.00 0.00 0.00 81 1018.0
20260901130204 15 38 4.8 9.7 0.00 0.00 0.00 80 1017.9
20260901124704 14 53 1.6 4.8 0.00 0.00 0.00 83 1017.9
20260901124204 14 51 4.8 8.0 0.00 0.00 0.00 83 1017.9
20260901122704 15 43 3.2 4.8 0.00 0.00 0.00 83 1017.9
20260901122204 14 48 3.2 8.0 0.00 0.00 0.00 84 1017.9
20260901120703 14 65 1.6 4.8 0.00 0.00 0.00 86 1018.1
20260901114704 13 65 1.6 4.8 0.00 0.00 0.00 87 1018.1
20260901114203 13 65 3.2 4.8 0.00 0.00 0.00 88 1018.1
20260901112704 12 65 0.0 3.2 0.00 0.00 0.00 91 1018.2
20260901112204 12 65 1.6 3.2 0.00 0.00 0.00 91 1018.2
20260901110704 12 65 0.0 0.0 0.00 0.00 0.00 91 1017.9
20260901110203 12 65 1.6 3.2 0.00 0.00 0.00 91 1017.8
20260901104704 11 65 1.6 3.2 0.00 0.03 0.00 91 1017.4
20260901102703 11 71 4.8 8.0 0.00 0.03 0.00 91 1017.5
20260901100704 11 70 1.6 4.8 0.00 0.03 0.00 91 1017.4
20260901100204 11 67 1.6 4.8 0.00 0.03 0.00 92 1017.3
20260901094704 11 67 3.2 4.8 0.00 0.03 0.00 92 1017.2
20260901094204 11 66 3.2 8.0 0.00 0.03 0.00 92 1017.2
20260901092704 11 114 3.2 4.8 0.00 0.03 0.00 92 1017.2
20260901092204 11 114 1.6 4.8 0.00 0.03 0.00 92 1017.1
20260901090704 11 114 1.6 4.8 0.00 0.03 0.00 91 1017.2
20260901084703 11 115 0.0 1.6 0.00 0.03 0.00 91 1017.5
20260901082703 11 115 0.0 0.0 0.00 0.03 0.00 90 1017.2
20260901082204 11 115 0.0 3.2 0.00 0.03 0.00 90 1017.2
20260901080703 11 115 0.0 1.6 0.00 0.03 0.00 91 1017.1
20260901080204 11 115 0.0 4.8 0.00 0.03 0.00 91 1017.1
20260901074705 11 115 3.2 4.8 0.00 0.03 0.00 92 1017.1
20260901074205 11 115 3.2 4.8 0.00 0.03 0.00 91 1017.1
20260901072705 11 115 0.0 0.0 0.00 0.03 0.00 91 1017.4
20260901072205 11 115 0.0 3.2 0.00 0.03 0.00 91 1017.4
20260901070706 11 115 0.0 1.6 0.00 0.03 0.00 91 1017.5
20260901064205 12 115 1.6 3.2 0.00 0.03 0.00 91 1017.7
20260901062205 12 115 1.6 1.6 0.00 0.03 0.00 90 1017.6
20260901060705 12 115 1.6 3.2 0.00 0.03 0.00 90 1017.5
20260901060205 12 115 1.6 3.2 0.00 0.03 0.00 89 1017.6
20260901054705 12 115 1.6 3.2 0.00 0.03 0.00 90 1017.7
20260901054205 12 115 1.6 3.2 0.00 0.03 0.00 89 1017.7
20260901052205 12 115 1.6 3.2 0.00 0.03 0.00 89 1017.6
20260901050705 12 115 1.6 3.2 0.00 0.03 0.00 89 1017.7
20260901050206 12 115 1.6 4.8 0.00 0.03 0.00 89 1017.7
20260901044705 13 111 3.2 4.8 0.00 0.03 0.00 88 1017.7
20260901044205 13 84 0.0 1.6 0.00 0.03 0.00 88 1017.7
20260901042205 13 84 0.0 1.6 0.00 0.03 0.00 87 1017.4
20260901040705 14 84 1.6 3.2 0.00 0.03 0.00 86 1017.2
20260901034705 15 84 1.6 3.2 0.00 0.03 0.03 84 1017.1
20260901034205 15 84 0.0 1.6 0.00 0.03 0.03 83 1017.2
20260901032705 15 84 0.0 1.6 0.00 0.03 0.03 83 1017.1
20260901032205 15 84 1.6 8.0 0.00 0.03 0.03 83 1017.0
20260901030704 15 95 1.6 4.8 0.00 0.03 0.03 87 1017.1
20260901030204 15 95 1.6 3.2 0.00 0.03 0.03 86 1017.1
20260901024705 16 95 0.0 0.0 0.00 0.03 0.03 85 1017.1
20260901022705 16 95 0.0 3.2 0.00 0.03 0.03 84 1017.1
20260901022205 16 95 1.6 8.0 0.00 0.03 0.03 84 1017.1
20260901020705 16 103 1.6 3.2 0.00 0.03 0.03 84 1017.2
20260901020205 16 103 0.0 3.2 0.00 0.03 0.03 83 1017.2
20260901014705 16 103 1.6 4.8 0.00 0.03 0.03 83 1017.3
20260901012705 16 104 0.0 1.6 0.00 0.03 0.03 84 1017.4
20260901012205 16 104 1.6 4.8 0.00 0.03 0.03 84 1017.4
20260901010705 16 113 3.2 4.8 0.00 0.03 0.03 82 1017.4
20260901010204 16 191 1.6 4.8 0.00 0.03 0.03 81 1017.4
20260901004704 16 191 1.6 4.8 0.00 0.03 0.03 80 1017.3
20260901004206 16 191 1.6 3.2 0.00 0.03 0.03 80 1017.3